Location: Geroldsau
(48.7259°N, 8.2466°E)
Time: 11:43:24
(UTC+00:00)

Cosmos 1570 Rocket - Pass Details

Date: 20 June 2021
Orbit: 763 x 788 km, 74.1° (Epoch: 27 July)

Event Time Altitude Azimuth Distance (km) Brightness Sun altitude
Exits shadow 01:01:43 21° 181° (S) 1,662 5.2 -14.9°
Maximum altitude 01:05:07 60° 108° (ESE) 874 4.3 -14.7°
Drops below altitude 10° 01:10:15 10° 29° (NNE) 2,309 7.9 -14.3°
Sets 01:12:39 0° 26° (NNE) 3,239 9.3 -14.2°
